[[{"header":{"parameterUnit":"m.s-1","parameterCategory":1,"la1":30.2991,"la2":30.254,"lo1":-89.0895,"lo2":-89.0444,"dy":0.0017,"dx":0.0017,"nx":28,"ny":28,"refTime":"2025-07-09T03:00:00:Z","depth":0,"parameterNumber":2,"parameterNumberName":"U-component_of_WINDS"},"data":[0,0,0,0,0,0,0,0,0,0,0,0,0,0,0,0,0,0,0,0,0,0,0,0,0,0,0,0,0,0,0,0,0,0,0,0,0,0,0,0,0,0,0,0,0,0,0,0,0,0,0,0,0,0,0,0,0,0,2.794,2.794,0,2.7985,2.7986,2.7986,2.7989,2.7989,2.7988,2.7988,2.8038,2.804,2.8041,0,0,0,0,0,0,0,0,0,0,0,0,0,2.786,2.7861,2.794,2.794,2.7941,2.7985,2.7986,2.7987,2.799,2.7989,2.7988,2.7988,2.8037,2.8039,2.8042,0,0,0,0,0,0,0,0,0,0,0,0,0,2.7899,2.7862,2.794,2.7948,2.7949,2.7985,2.7986,2.7987,2.799,2.7989,2.7988,2.7987,2.8037,2.8039,2.8042,2.8074,0,0,2.805,2.8051,0,0,0,0,0,0,0,0,2.7897,2.7902,2.7946,2.7947,2.7949,2.7981,2.7976,2.8016,2.799,2.7974,2.7988,2.7987,2.802,2.8024,2.8034,2.8077,2.8079,2.805,2.8052,2.8053,2.8054,0,0,0,0,0,0,0,2.7894,2.79,2.7958,2.7947,2.7948,2.795,2.7955,2.7984,2.8001,2.7976,2.7976,2.7981,2.802,2.8031,2.8035,2.8079,2.805,2.8053,2.8054,2.8055,2.8153,2.8154,0,0,0,0,0,0,2.7889,2.7898,2.7956,2.7959,2.792,2.7952,2.7958,2.7971,2.8001,2.8004,2.7982,2.7981,2.8027,2.8032,2.8037,2.8078,2.8053,2.8056,2.8057,2.8152,2.8153,2.8154,0,0,0,0,0,0,2.7887,2.7894,2.7955,2.7929,2.7936,2.7955,2.797,2.7973,2.7984,2.8005,2.8009,2.799,2.8027,2.8033,2.8065,2.808,2.8057,2.8059,2.8151,2.8152,2.8154,2.816,0,0,0,0,0,0,2.7885,2.7894,2.7905,2.7929,2.7938,2.7981,2.7971,2.7974,2.7988,2.7988,2.8014,2.8017,2.8027,2.8061,2.8068,2.8083,2.8062,2.815,2.8152,2.8153,2.8158,2.8161,2.8164,0,0,0,0,0,2.7882,2.7905,2.7906,2.7913,2.7952,2.7981,2.7987,2.7996,2.7989,2.8002,2.8016,2.8016,2.8077,2.8064,2.8072,2.8088,2.8149,2.8151,2.8153,2.8157,2.8161,2.8164,0,0,0,0,0,0,2.7883,2.7908,2.7909,2.794,2.7959,2.7982,2.7998,2.7999,2.8021,2.802,2.8032,2.8038,2.807,2.8082,2.8068,2.8122,2.8112,2.8116,2.8113,2.8116,2.8119,2.8116,2.8064,0,0,0,0,0,2.7887,2.7908,2.7929,2.7954,2.7964,2.7979,2.7992,2.7998,2.8018,2.8026,2.8042,2.8063,2.8087,2.8102,2.8125,2.816,2.8167,2.8175,2.8178,2.818,2.8184,2.8205,2.8209,2.8161,2.8161,2.8161,0,0,2.7895,2.7912,2.7924,2.7955,2.797,2.7993,2.7986,2.8009,2.8027,2.803,2.8061,2.8074,2.8098,2.8132,2.8148,2.8143,2.8198,2.8183,2.8184,2.8187,2.8208,2.8212,2.8216,2.8163,2.8163,2.8162,0,0,2.7922,2.7936,2.7959,2.7974,2.7997,2.8007,2.8013,2.8036,2.8045,2.8076,2.808,2.8101,2.8142,2.8159,2.8173,2.8208,2.821,2.8215,2.8229,2.825,2.8254,2.8257,2.8271,2.8275,2.8218,2.8218,2.8218,0,2.793,2.7962,2.7971,2.7995,2.801,2.8013,2.8038,2.8053,2.8082,2.8093,2.8087,2.8139,2.8155,2.8194,2.8203,2.8214,2.8222,2.8212,2.8252,2.8256,2.8259,2.8272,2.8277,2.8219,2.8219,2.8219,2.8219,0,2.7972,2.7994,2.8011,2.8039,2.8055,2.8079,2.8093,2.8109,2.8114,2.8125,2.8158,2.8178,2.8206,2.8215,2.822,2.8256,2.8252,2.8249,2.824,2.8264,2.8277,2.8282,2.822,2.8219,2.8219,2.8219,0,0,2.8,2.8033,2.8039,2.8052,2.8078,2.8096,2.8122,2.8148,2.8162,2.8183,2.8205,2.824,2.8238,2.8254,2.8261,2.8279,2.8307,2.8274,2.8275,2.8281,2.8349,2.8352,2.8357,2.8309,2.831,2.8311,2.8348,0,2.803,2.8074,2.8083,2.8122,2.8144,2.8149,2.8171,2.819,2.8202,2.8224,2.8238,2.8262,2.8257,2.8267,2.8285,2.83,2.8322,2.8298,2.8332,2.8333,2.8326,2.8364,2.8366,2.84,2.8353,2.8353,2.8354,0,2.8071,2.8092,2.8133,2.8157,2.8167,2.8186,2.8212,2.8233,2.8255,2.8263,2.8281,2.8287,2.8315,2.8304,2.8344,2.8328,2.8343,2.8353,2.8354,2.8358,2.8345,2.837,2.8411,2.8417,2.8362,2.8361,2.8361,0,2.8089,2.8128,2.8157,2.8169,2.8197,2.8211,2.8224,2.8246,2.8262,2.8285,2.8296,2.8322,2.8337,2.8358,2.8371,2.8361,2.8411,2.8401,2.842,2.8419,2.843,2.8429,2.8475,2.8438,2.8438,2.8438,2.8438,0,2.8122,2.8147,2.8166,2.8184,2.8213,2.8225,2.8253,2.8266,2.8286,2.8308,2.8314,2.8335,2.8351,2.8375,2.8386,2.8418,2.8425,2.8433,2.8435,2.8433,2.8432,2.8443,2.8441,2.8439,2.8439,2.8439,2.8439,0,2.8147,2.8161,2.8193,2.8218,2.8225,2.8245,2.8267,2.8286,2.8298,2.8326,2.8334,2.8353,2.8382,2.8397,2.8433,2.844,2.8477,2.8478,2.8469,2.8471,2.8489,2.8488,2.8544,2.8553,2.8509,2.851,2.851,0,2.8168,2.8187,2.8214,2.8229,2.8242,2.8266,2.8282,2.8295,2.8312,2.834,2.8356,2.8384,2.8408,2.8453,2.8472,2.8499,2.8502,2.852,2.8506,2.8503,2.8504,2.8502,2.8505,2.8522,2.8523,2.8523,2.8523,0,2.8204,2.821,2.8232,2.8258,2.8277,2.8297,2.8318,2.833,2.8346,2.8365,2.8394,2.8412,2.8449,2.8478,2.8507,2.8522,2.8527,2.8528,2.8534,2.8531,2.8526,2.853,2.8477,2.8526,2.8526,2.8526,2.8526,2.8526,2.8228,2.8246,2.8268,2.8293,2.831,2.833,2.8349,2.8364,2.8387,2.8417,2.8424,2.8455,2.8479,2.8519,2.8535,2.856,2.8557,2.8565,2.8567,2.8569,2.8571,2.8521,2.8565,2.8565,2.8565,2.8565,2.8565,0,2.8265,2.828,2.8303,2.8331,2.8352,2.8353,2.8376,2.8394,2.842,2.8442,2.8465,2.8499,2.8527,2.8548,2.8577,2.8594,2.8597,2.8601,2.8601,2.8604,2.8572,2.8564,2.8599,2.8599,2.8599,2.8599,2.8599,2.8599,2.8287,2.8318,2.8326,2.8366,2.8381,2.8411,2.8424,2.8443,2.846,2.8497,2.8521,2.8534,2.8556,2.8587,2.8614,2.8619,2.863,2.8635,2.8641,2.861,2.8607,2.8603,2.8596,2.8637,2.8637,2.8672,2.8672,2.8673]},{"header":{"parameterUnit":"m.s-1","parameterCategory":1,"la1":30.2991,"la2":30.254,"lo1":-89.0895,"lo2":-89.0444,"dy":0.0017,"dx":0.0017,"nx":28,"ny":28,"refTime":"2025-07-09T03:00:00:Z","depth":0,"parameterNumber":3,"parameterNumberName":"V-component_of_WINDS"},"data":[0,0,0,0,0,0,0,0,0,0,0,0,0,0,0,0,0,0,0,0,0,0,0,0,0,0,0,0,0,0,0,0,0,0,0,0,0,0,0,0,0,0,0,0,0,0,0,0,0,0,0,0,0,0,0,0,0,0,1.1917,1.1918,0,1.198,1.1981,1.1981,1.2014,1.2014,1.2014,1.2014,1.2078,1.2079,1.2081,0,0,0,0,0,0,0,0,0,0,0,0,0,1.1823,1.1824,1.1917,1.1918,1.1919,1.198,1.1981,1.1982,1.2014,1.2014,1.2014,1.2014,1.2077,1.2079,1.2081,0,0,0,0,0,0,0,0,0,0,0,0,0,1.1872,1.1825,1.1917,1.1942,1.1945,1.198,1.1981,1.1982,1.2014,1.2014,1.2014,1.2014,1.2076,1.2079,1.2081,1.2095,0,0,1.2089,1.209,0,0,0,0,0,0,0,0,1.1869,1.1876,1.1938,1.1941,1.1944,1.1989,1.1971,1.202,1.2014,1.1988,1.2014,1.2014,1.2048,1.2053,1.2064,1.2098,1.2101,1.2089,1.209,1.2091,1.2092,0,0,0,0,0,0,0,1.1866,1.1873,1.1942,1.1939,1.1943,1.195,1.1957,1.198,1.2017,1.199,1.1993,1.2,1.205,1.2062,1.2066,1.2102,1.2089,1.2091,1.2093,1.2094,1.2145,1.2145,0,0,0,0,0,0,1.1859,1.187,1.194,1.1944,1.1906,1.1951,1.1959,1.1975,1.2017,1.2023,1.2,1.2001,1.2058,1.2063,1.2068,1.2085,1.2091,1.2094,1.2095,1.2145,1.2145,1.2145,0,0,0,0,0,0,1.1857,1.1865,1.1938,1.1908,1.1918,1.1953,1.197,1.1976,1.1988,1.2024,1.203,1.2006,1.2058,1.2065,1.2087,1.2088,1.2095,1.2097,1.2146,1.2145,1.2145,1.2119,0,0,0,0,0,0,1.1854,1.1864,1.1871,1.1908,1.1919,1.1956,1.197,1.1977,1.1992,1.1995,1.2031,1.2037,1.2059,1.2083,1.209,1.2091,1.2099,1.2146,1.2146,1.2145,1.212,1.2118,1.2117,0,0,0,0,0,1.185,1.1862,1.1871,1.1879,1.1928,1.1957,1.1963,1.1988,1.1992,1.1999,1.2021,1.2036,1.2087,1.2085,1.2093,1.2095,1.2146,1.2146,1.2145,1.2121,1.2119,1.2117,0,0,0,0,0,0,1.1825,1.1867,1.1878,1.1902,1.1925,1.1962,1.1971,1.1985,1.2008,1.2009,1.2038,1.2046,1.2065,1.2082,1.208,1.2108,1.2117,1.2119,1.2097,1.2095,1.2093,1.2088,1.2101,0,0,0,0,0,1.1821,1.1841,1.1877,1.1895,1.1906,1.1936,1.1949,1.1966,1.1991,1.2001,1.2026,1.2049,1.207,1.2083,1.2105,1.2123,1.213,1.2128,1.2126,1.2124,1.2125,1.2132,1.2131,1.2144,1.2144,1.2144,0,0,1.1816,1.1841,1.1853,1.189,1.191,1.1929,1.1944,1.1964,1.1978,1.2005,1.2026,1.2044,1.2072,1.2092,1.2101,1.2107,1.2122,1.2124,1.2122,1.2124,1.2131,1.213,1.2129,1.2144,1.2144,1.2144,0,0,1.1815,1.1837,1.1852,1.1871,1.1901,1.192,1.1923,1.1958,1.197,1.1992,1.2012,1.2028,1.2064,1.2082,1.2096,1.2097,1.211,1.2103,1.2093,1.21,1.2099,1.2098,1.2096,1.2095,1.2103,1.2103,1.2103,0,1.1804,1.1833,1.1858,1.1876,1.1891,1.1914,1.1929,1.1946,1.1981,1.199,1.1995,1.2039,1.206,1.2082,1.2081,1.2093,1.2096,1.2099,1.2097,1.2096,1.2096,1.2094,1.2093,1.2102,1.2102,1.2102,1.2102,0,1.1817,1.1837,1.1845,1.1877,1.1892,1.1909,1.1934,1.1947,1.1961,1.1979,1.1999,1.2024,1.205,1.2056,1.2071,1.2079,1.2081,1.2091,1.2101,1.2093,1.2091,1.2091,1.21,1.2101,1.2101,1.2101,0,0,1.1804,1.1846,1.1849,1.1862,1.1894,1.191,1.1925,1.1949,1.1958,1.198,1.1993,1.2021,1.2029,1.2045,1.2061,1.2067,1.2062,1.2076,1.2077,1.2071,1.207,1.2061,1.206,1.2072,1.2072,1.2072,1.2067,0,1.1806,1.1835,1.1856,1.1877,1.1893,1.1914,1.1927,1.1947,1.1964,1.1979,1.1997,1.2015,1.2026,1.2035,1.2042,1.2062,1.2062,1.2062,1.2082,1.2082,1.2073,1.206,1.2052,1.2046,1.2067,1.2067,1.2067,0,1.1814,1.1833,1.1855,1.1882,1.1889,1.1901,1.1922,1.1938,1.196,1.1971,1.1986,1.2002,1.2017,1.2025,1.2044,1.2044,1.2053,1.2063,1.2063,1.2065,1.2073,1.206,1.2045,1.2043,1.2066,1.2066,1.2066,0,1.1799,1.1831,1.1847,1.1858,1.189,1.1897,1.1911,1.1933,1.1945,1.1963,1.1971,1.1991,1.2002,1.2016,1.2036,1.2041,1.2053,1.2063,1.2061,1.206,1.2063,1.2062,1.2047,1.207,1.207,1.207,1.207,0,1.1799,1.1811,1.1841,1.1851,1.1863,1.1886,1.1898,1.1913,1.1932,1.1944,1.1963,1.1974,1.2,1.2013,1.2029,1.2041,1.2047,1.2055,1.2059,1.2052,1.2051,1.2058,1.2059,1.207,1.207,1.207,1.207,0,1.1786,1.1806,1.1825,1.1852,1.1859,1.1867,1.1891,1.19,1.1916,1.193,1.1935,1.196,1.1976,1.1997,1.2021,1.2031,1.204,1.2048,1.2033,1.2035,1.2031,1.203,1.2019,1.2018,1.2043,1.2042,1.2042,0,1.1784,1.1793,1.182,1.1829,1.1842,1.1857,1.1868,1.1889,1.19,1.1923,1.1929,1.1946,1.1961,1.1985,1.2005,1.2022,1.2028,1.2023,1.2031,1.2023,1.2026,1.2025,1.2024,1.2021,1.2021,1.2021,1.202,0,1.1778,1.1786,1.1802,1.1819,1.1831,1.1847,1.1863,1.1869,1.1893,1.1904,1.192,1.1931,1.1953,1.1969,1.1988,1.2001,1.2014,1.2017,1.2017,1.2011,1.2001,1.2004,1.2026,1.2018,1.2018,1.2018,1.2018,1.2018,1.1769,1.1776,1.1796,1.1811,1.1825,1.1838,1.1847,1.1863,1.1876,1.1895,1.1907,1.1922,1.194,1.1966,1.1978,1.1989,1.1994,1.1995,1.1995,1.1994,1.1991,1.2,1.1992,1.1992,1.1993,1.1993,1.1993,0,1.1762,1.1774,1.1788,1.1808,1.1819,1.183,1.1847,1.1855,1.1868,1.1883,1.1897,1.1913,1.1927,1.1947,1.1962,1.1967,1.1973,1.197,1.1969,1.1972,1.1987,1.1984,1.1965,1.1965,1.1965,1.1965,1.1965,1.1965,1.176,1.1772,1.1782,1.18,1.1812,1.1826,1.1834,1.1846,1.1858,1.1875,1.1887,1.1899,1.1915,1.1931,1.1944,1.1949,1.1953,1.1948,1.1955,1.1969,1.1971,1.1973,1.1971,1.1949,1.1949,1.1939,1.1939,1.1939]}]]